This is the latest recevied weather packets stored in our database for station/object IK1YPD-13. If no packets are shown the sender has not sent any weather packets the latest 10 day(s).
| Time | Temp. | Humidity | Pressure | Rain* | Wind** | Luminosity | Snow |
|---|---|---|---|---|---|---|---|
| 1787653332 | 27.22° C | 60% | 1007 hPa | - | - | - | - |
| 1787652432 | 26.67° C | 62% | 1007 hPa | - | - | - | - |
| 1787651531 | 26.67° C | 64% | 1007 hPa | - | - | - | - |
| 1787650631 | 26.11° C | 65% | 1007 hPa | - | - | - | - |
| 1787649731 | 25.56° C | 65% | 1007 hPa | - | - | - | - |
| 1787648831 | 26.11° C | 65% | 1007 hPa | - | - | - | - |
| 1787647931 | 25.56° C | 65% | 1007 hPa | - | - | - | - |
| 1787647031 | 25.56° C | 69% | 1007 hPa | - | - | - | - |
| 1787646131 | 24.44° C | 69% | 1007 hPa | - | - | - | - |
| 1787645231 | 23.89° C | 75% | 1007 hPa | - | - | - | - |
| 1787644331 | 23.33° C | 88% | 1007 hPa | - | - | - | - |
| 1787643431 | 22.78° C | 90% | 1007 hPa | - | - | - | - |
| 1787642531 | 22.22° C | 93% | 1007 hPa | - | - | - | - |
| 1787641631 | 22.22° C | 89% | 1007 hPa | - | - | - | - |
| 1787640731 | 21.11° C | 94% | 1007 hPa | - | - | - | - |
| 1787639831 | 21.67° C | 97% | 1007 hPa | - | - | - | - |
| 1787638931 | 21.11° C | 97% | 1007 hPa | - | - | - | - |
| 1787638031 | 20.56° C | 98% | 1007 hPa | - | - | - | - |
| 1787637130 | 20.56° C | 97% | 1007 hPa | - | - | - | - |
| 1787636230 | 20.56° C | 98% | 1007 hPa | - | - | - | - |
| 1787635330 | 20.56° C | 97% | 1007 hPa | - | - | - | - |
| 1787634430 | 20.56° C | 97% | 1007 hPa | - | - | - | - |
| 1787633530 | 20.56° C | 97% | 1007 hPa | - | - | - | - |
| 1787632630 | 20.56° C | 98% | 1006 hPa | - | - | - | - |
| 1787631730 | 20.56° C | 98% | 1006 hPa | - | - | - | - |
* Rain since midnight (hover to see other rain measurements)
** Current wind speed in m/s (hover to see current wind gust speed)